Tracking 30692 objects as of 16-Jun-2025
HD Live streaming from Space Station
objects crossing your sky now

STARLINK-30264

Track STARLINK-30264 now!
10-day predictions
STARLINK-30264 is classified as:


NORAD ID: 57534
Int'l Code: 2023-115P
Perigee: 494.7 km
Apogee: 495.8 km
Inclination: 43.0 °
Period: 94.4 minutes
Semi major axis: 6866 km
RCS: Unknown
Launch date: August 8, 2023
Source: United States (US)
Launch site: AIR FORCE WESTERN TEST RANGE (AFWTR)
Your satellite tracking list
Your tracking list is empty




NASA's NSSDC Master Catalog

Two Line Element Set (TLE):
1 57534U 23115P   25166.61269331 -.00003911  00000-0 -13982-3 0  9999
2 57534  43.0017 276.0833 0000763 272.0131  88.0632 15.25897496104527
Source of the keplerian elements: AFSPC